Year,Month,Day,Hour,Minute,Value (Times are PST for temperature in C)
2012,08,18,00,00,20.40
2012,08,18,00,01,20.40
2012,08,18,00,02,20.40
2012,08,18,00,03,20.40
2012,08,18,00,04,20.40
2012,08,18,00,05,20.40
2012,08,18,00,06,20.40
2012,08,18,00,07,20.40
2012,08,18,00,08,20.40
2012,08,18,00,09,20.40
2012,08,18,00,10,20.40
2012,08,18,00,11,20.40
2012,08,18,00,12,20.30
2012,08,18,00,13,20.30
2012,08,18,00,14,20.30
2012,08,18,00,15,20.30
2012,08,18,00,16,20.30
2012,08,18,00,17,20.30
2012,08,18,00,18,20.30
2012,08,18,00,19,20.30
2012,08,18,00,20,20.30
2012,08,18,00,21,20.20
2012,08,18,00,22,20.20
2012,08,18,00,23,20.20
2012,08,18,00,24,20.10
2012,08,18,00,25,20.10
2012,08,18,00,26,20.10
2012,08,18,00,27,20.20
2012,08,18,00,28,20.20
2012,08,18,00,29,20.20
2012,08,18,00,30,20.20
2012,08,18,00,31,20.20
2012,08,18,00,32,20.20
2012,08,18,00,33,20.20
2012,08,18,00,34,20.20
2012,08,18,00,35,20.20
2012,08,18,00,36,20.30
2012,08,18,00,37,20.30
2012,08,18,00,38,20.30
2012,08,18,00,39,20.40
2012,08,18,00,40,20.40
2012,08,18,00,41,20.40
2012,08,18,00,42,20.40
2012,08,18,00,43,20.40
2012,08,18,00,44,20.40
2012,08,18,00,45,20.40
2012,08,18,00,46,20.40
2012,08,18,00,47,20.30
2012,08,18,00,48,20.30
2012,08,18,00,49,20.30
2012,08,18,00,50,20.40
2012,08,18,00,51,20.40
2012,08,18,00,52,20.40
2012,08,18,00,53,20.40
2012,08,18,00,54,20.30
2012,08,18,00,55,20.30
2012,08,18,00,56,20.30
2012,08,18,00,57,20.30
2012,08,18,00,58,20.30
2012,08,18,00,59,20.20
2012,08,18,01,00,20.20
2012,08,18,01,01,20.10
2012,08,18,01,02,20.10
2012,08,18,01,03,20.00
2012,08,18,01,04,20.00
2012,08,18,01,05,19.90
2012,08,18,01,06,19.80
2012,08,18,01,07,19.80
2012,08,18,01,08,19.70
2012,08,18,01,09,19.70
2012,08,18,01,10,19.60
2012,08,18,01,11,19.60
2012,08,18,01,12,19.60
2012,08,18,01,13,19.50
2012,08,18,01,14,19.50
2012,08,18,01,15,19.40
2012,08,18,01,16,19.40
2012,08,18,01,17,19.30
2012,08,18,01,18,19.30
2012,08,18,01,19,19.30
2012,08,18,01,20,19.30
2012,08,18,01,21,19.30
2012,08,18,01,22,19.30
2012,08,18,01,23,19.20
2012,08,18,01,24,19.20
2012,08,18,01,25,19.20
2012,08,18,01,26,19.10
2012,08,18,01,27,19.10
2012,08,18,01,28,19.00
2012,08,18,01,29,19.00
2012,08,18,01,30,18.90
2012,08,18,01,31,18.90
2012,08,18,01,32,18.80
2012,08,18,01,33,18.80
2012,08,18,01,34,18.80
2012,08,18,01,35,18.70
2012,08,18,01,36,18.70
2012,08,18,01,37,18.70
2012,08,18,01,38,18.70
2012,08,18,01,39,18.60
2012,08,18,01,40,18.60
2012,08,18,01,41,18.60
2012,08,18,01,42,18.50
2012,08,18,01,43,18.50
2012,08,18,01,44,18.50
2012,08,18,01,45,18.40
2012,08,18,01,46,18.40
2012,08,18,01,47,18.40
2012,08,18,01,48,18.50
2012,08,18,01,49,18.50
2012,08,18,01,50,18.40
2012,08,18,01,51,18.40
2012,08,18,01,52,18.40
2012,08,18,01,53,18.40
2012,08,18,01,54,18.50
2012,08,18,01,55,18.40
2012,08,18,01,56,18.40
2012,08,18,01,57,18.40
2012,08,18,01,58,18.40
2012,08,18,01,59,18.40
2012,08,18,02,00,18.40
2012,08,18,02,01,18.30
2012,08,18,02,02,18.30
2012,08,18,02,03,18.30
2012,08,18,02,04,18.30
2012,08,18,02,05,18.20
2012,08,18,02,06,18.20
2012,08,18,02,07,18.20
2012,08,18,02,08,18.10
2012,08,18,02,09,18.10
2012,08,18,02,10,18.10
2012,08,18,02,11,18.00
2012,08,18,02,12,18.00
2012,08,18,02,13,17.90
2012,08,18,02,14,17.90
2012,08,18,02,15,17.80
2012,08,18,02,16,17.80
2012,08,18,02,17,17.70
2012,08,18,02,18,17.70
2012,08,18,02,19,17.60
2012,08,18,02,20,17.60
2012,08,18,02,21,17.60
2012,08,18,02,22,17.60
2012,08,18,02,23,17.50
2012,08,18,02,24,17.50
2012,08,18,02,25,17.40
2012,08,18,02,26,17.30
2012,08,18,02,27,17.30
2012,08,18,02,28,17.20
2012,08,18,02,29,17.20
2012,08,18,02,30,17.20
2012,08,18,02,31,17.20
2012,08,18,02,32,17.20
2012,08,18,02,33,17.20
2012,08,18,02,34,17.20
2012,08,18,02,35,17.30
2012,08,18,02,36,17.30
2012,08,18,02,37,17.30
2012,08,18,02,38,17.30
2012,08,18,02,39,17.30
2012,08,18,02,40,17.30
2012,08,18,02,41,17.30
2012,08,18,02,42,17.30
2012,08,18,02,43,17.30
2012,08,18,02,44,17.40
2012,08,18,02,45,17.40
2012,08,18,02,46,17.40
2012,08,18,02,47,17.40
2012,08,18,02,48,17.40
2012,08,18,02,49,17.50
2012,08,18,02,50,17.50
2012,08,18,02,51,17.60
2012,08,18,02,52,17.60
2012,08,18,02,53,17.60
2012,08,18,02,54,17.60
2012,08,18,02,55,17.60
2012,08,18,02,56,17.60
2012,08,18,02,57,17.60
2012,08,18,02,58,17.60
2012,08,18,02,59,17.60
2012,08,18,03,00,17.60
2012,08,18,03,01,17.60
2012,08,18,03,02,17.60
2012,08,18,03,06,17.50
2012,08,18,03,07,17.50
2012,08,18,03,08,17.50
2012,08,18,03,09,17.50
2012,08,18,03,10,17.50
2012,08,18,03,11,17.60
2012,08,18,03,12,17.60
2012,08,18,03,13,17.60
2012,08,18,03,14,17.60
2012,08,18,03,15,17.60
2012,08,18,03,16,17.50
2012,08,18,03,17,17.50
2012,08,18,03,18,17.50
2012,08,18,03,19,17.40
2012,08,18,03,20,17.40
2012,08,18,03,21,17.40
2012,08,18,03,22,17.40
2012,08,18,03,23,17.40
2012,08,18,03,24,17.40
2012,08,18,03,25,17.40
2012,08,18,03,26,17.40
2012,08,18,03,27,17.30
2012,08,18,03,28,17.30
2012,08,18,03,29,17.30
2012,08,18,03,30,17.30
2012,08,18,03,31,17.30
2012,08,18,03,32,17.30
2012,08,18,03,33,17.20
2012,08,18,03,34,17.20
2012,08,18,03,35,17.20
2012,08,18,03,36,17.10
2012,08,18,03,37,17.10
2012,08,18,03,38,17.10
2012,08,18,03,39,17.00
2012,08,18,03,40,17.00
2012,08,18,03,41,16.90
2012,08,18,03,42,16.90
2012,08,18,03,43,16.80
2012,08,18,03,44,16.80
2012,08,18,03,45,16.80
2012,08,18,03,46,16.70
2012,08,18,03,47,16.70
2012,08,18,03,48,16.60
2012,08,18,03,49,16.60
2012,08,18,03,50,16.60
2012,08,18,03,51,16.60
2012,08,18,03,52,16.60
2012,08,18,03,53,16.60
2012,08,18,03,54,16.60
2012,08,18,03,55,16.60
2012,08,18,03,56,16.60
2012,08,18,03,57,16.70
2012,08,18,03,58,16.70
2012,08,18,03,59,16.70
2012,08,18,04,00,16.70
2012,08,18,04,01,16.70
2012,08,18,04,02,16.70
2012,08,18,04,03,16.70
2012,08,18,04,04,16.70
2012,08,18,04,05,16.60
2012,08,18,04,06,16.50
2012,08,18,04,07,16.50
2012,08,18,04,08,16.50
2012,08,18,04,09,16.40
2012,08,18,04,10,16.40
2012,08,18,04,11,16.40
2012,08,18,04,12,16.40
2012,08,18,04,13,16.40
2012,08,18,04,14,16.30
2012,08,18,04,15,16.30
2012,08,18,04,16,16.30
2012,08,18,04,17,16.30
2012,08,18,04,18,16.30
2012,08,18,04,19,16.20
2012,08,18,04,20,16.20
2012,08,18,04,21,16.20
2012,08,18,04,22,16.20
2012,08,18,04,23,16.20
2012,08,18,04,24,16.20
2012,08,18,04,25,16.20
2012,08,18,04,26,16.10
2012,08,18,04,27,16.10
2012,08,18,04,28,16.10
2012,08,18,04,29,16.10
2012,08,18,04,30,16.10
2012,08,18,04,31,16.00
2012,08,18,04,32,16.00
2012,08,18,04,33,16.00
2012,08,18,04,34,16.00
2012,08,18,04,35,16.00
2012,08,18,04,36,16.00
2012,08,18,04,37,15.90
2012,08,18,04,38,15.90
2012,08,18,04,39,15.90
2012,08,18,04,40,15.90
2012,08,18,04,41,15.90
2012,08,18,04,42,15.90
2012,08,18,04,43,15.90
2012,08,18,04,44,15.90
2012,08,18,04,45,15.90
2012,08,18,04,46,15.90
2012,08,18,04,47,15.90
2012,08,18,04,48,16.00
2012,08,18,04,49,16.00
2012,08,18,04,50,16.10
2012,08,18,04,51,16.10
2012,08,18,04,52,16.20
2012,08,18,04,53,16.20
2012,08,18,04,54,16.20
2012,08,18,04,55,16.20
2012,08,18,04,56,16.20
2012,08,18,04,57,16.20
2012,08,18,04,58,16.20
2012,08,18,04,59,16.20
2012,08,18,05,00,16.20
2012,08,18,05,01,16.20
2012,08,18,05,02,16.20
2012,08,18,05,03,16.20
2012,08,18,05,04,16.20
2012,08,18,05,05,16.20
2012,08,18,05,06,16.20
2012,08,18,05,07,16.20
2012,08,18,05,08,16.20
2012,08,18,05,09,16.20
2012,08,18,05,10,16.20
2012,08,18,05,11,16.10
2012,08,18,05,12,16.10
2012,08,18,05,13,16.10
2012,08,18,05,14,16.10
2012,08,18,05,15,16.10
2012,08,18,05,16,16.10
2012,08,18,05,17,16.10
2012,08,18,05,18,16.00
2012,08,18,05,19,16.00
2012,08,18,05,20,16.00
2012,08,18,05,21,16.00
2012,08,18,05,22,15.90
2012,08,18,05,23,15.90
2012,08,18,05,24,15.90
2012,08,18,05,25,15.90
2012,08,18,05,26,15.80
2012,08,18,05,27,15.80
2012,08,18,05,28,15.80
2012,08,18,05,29,15.80
2012,08,18,05,30,15.70
2012,08,18,05,31,15.70
2012,08,18,05,32,15.70
2012,08,18,05,33,15.70
2012,08,18,05,34,15.60
2012,08,18,05,35,15.60
2012,08,18,05,36,15.60
2012,08,18,05,37,15.50
2012,08,18,05,38,15.50
2012,08,18,05,39,15.40
2012,08,18,05,40,15.40
2012,08,18,05,41,15.30
2012,08,18,05,42,15.30
2012,08,18,05,43,15.30
2012,08,18,05,44,15.30
2012,08,18,05,45,15.30
2012,08,18,05,46,15.30
2012,08,18,05,47,15.20
2012,08,18,05,48,15.20
2012,08,18,05,49,15.20
2012,08,18,05,50,15.20
2012,08,18,05,51,15.20
2012,08,18,05,52,15.20
2012,08,18,05,53,15.10
2012,08,18,05,54,15.10
2012,08,18,05,55,15.10
2012,08,18,05,56,15.10
2012,08,18,05,57,15.00
2012,08,18,05,58,15.00
2012,08,18,05,59,15.00
2012,08,18,06,00,15.00
2012,08,18,06,01,15.00
2012,08,18,06,02,14.90
2012,08,18,06,03,14.90
2012,08,18,06,04,14.90
2012,08,18,06,05,14.90
2012,08,18,06,06,14.90
2012,08,18,06,07,15.00
2012,08,18,06,08,15.00
2012,08,18,06,09,15.00
2012,08,18,06,10,15.00
2012,08,18,06,11,15.10
2012,08,18,06,12,15.10
2012,08,18,06,13,15.10
2012,08,18,06,14,15.10
2012,08,18,06,15,15.10
2012,08,18,06,16,15.10
2012,08,18,06,17,15.20
2012,08,18,06,18,15.20
2012,08,18,06,19,15.20
2012,08,18,06,20,15.20
2012,08,18,06,21,15.20
2012,08,18,06,22,15.30
2012,08,18,06,23,15.20
2012,08,18,06,24,15.30
2012,08,18,06,25,15.30
2012,08,18,06,26,15.30
2012,08,18,06,27,15.30
2012,08,18,06,28,15.30
2012,08,18,06,29,15.30
2012,08,18,06,30,15.30
2012,08,18,06,31,15.30
2012,08,18,06,32,15.20
2012,08,18,06,33,15.20
2012,08,18,06,34,15.20
2012,08,18,06,35,15.30
2012,08,18,06,36,15.30
2012,08,18,06,37,15.30
2012,08,18,06,38,15.30
2012,08,18,06,39,15.30
2012,08,18,06,40,15.40
2012,08,18,06,41,15.40
2012,08,18,06,42,15.40
2012,08,18,06,43,15.50
2012,08,18,06,44,15.50
2012,08,18,06,45,15.50
2012,08,18,06,46,15.60
2012,08,18,06,47,15.60
2012,08,18,06,48,15.60
2012,08,18,06,49,15.70
2012,08,18,06,50,15.70
2012,08,18,06,51,15.70
2012,08,18,06,52,15.70
2012,08,18,06,53,15.70
2012,08,18,06,54,15.70
2012,08,18,06,55,15.70
2012,08,18,06,56,15.70
2012,08,18,06,57,15.70
2012,08,18,06,58,15.70
2012,08,18,06,59,15.70
2012,08,18,07,00,15.70
2012,08,18,07,01,15.70
2012,08,18,07,02,15.70
2012,08,18,07,03,15.70
2012,08,18,07,04,15.70
2012,08,18,07,05,15.70
2012,08,18,07,06,15.80
2012,08,18,07,07,15.80
2012,08,18,07,08,15.80
2012,08,18,07,09,15.80
2012,08,18,07,10,15.80
2012,08,18,07,11,15.80
2012,08,18,07,12,15.80
2012,08,18,07,13,15.80
2012,08,18,07,14,15.80
2012,08,18,07,15,15.80
2012,08,18,07,16,15.80
2012,08,18,07,17,15.90
2012,08,18,07,18,15.90
2012,08,18,07,19,15.90
2012,08,18,07,20,15.90
2012,08,18,07,21,15.90
2012,08,18,07,22,15.90
2012,08,18,07,23,15.90
2012,08,18,07,24,15.90
2012,08,18,07,25,15.90
2012,08,18,07,26,15.90
2012,08,18,07,27,15.90
2012,08,18,07,28,16.00
2012,08,18,07,29,16.00
2012,08,18,07,30,16.00
2012,08,18,07,31,16.00
2012,08,18,07,32,16.00
2012,08,18,07,33,16.10
2012,08,18,07,34,16.10
2012,08,18,07,35,16.10
2012,08,18,07,36,16.10
2012,08,18,07,37,16.10
2012,08,18,07,38,16.10
2012,08,18,07,39,16.20
2012,08,18,07,40,16.20
2012,08,18,07,41,16.20
2012,08,18,07,42,16.20
2012,08,18,07,43,16.20
2012,08,18,07,44,16.20
2012,08,18,07,45,16.20
2012,08,18,07,46,16.30
2012,08,18,07,47,16.30
2012,08,18,07,48,16.30
2012,08,18,07,49,16.30
2012,08,18,07,50,16.30
2012,08,18,07,51,16.30
2012,08,18,07,52,16.30
2012,08,18,07,53,16.30
2012,08,18,07,54,16.30
2012,08,18,07,55,16.30
2012,08,18,07,56,16.30
2012,08,18,07,57,16.30
2012,08,18,07,58,16.30
2012,08,18,07,59,16.30
2012,08,18,08,00,16.30
2012,08,18,08,01,16.30
2012,08,18,08,02,16.30
2012,08,18,08,03,16.30
2012,08,18,08,04,16.30
2012,08,18,08,05,16.30
2012,08,18,08,06,16.30
2012,08,18,08,07,16.30
2012,08,18,08,08,16.30
2012,08,18,08,09,16.30
2012,08,18,08,10,16.30
2012,08,18,08,11,16.30
2012,08,18,08,12,16.30
2012,08,18,08,13,16.30
2012,08,18,08,14,16.30
2012,08,18,08,15,16.40
2012,08,18,08,16,16.40
2012,08,18,08,17,16.40
2012,08,18,08,18,16.40
2012,08,18,08,19,16.40
2012,08,18,08,20,16.40
2012,08,18,08,21,16.40
2012,08,18,08,22,16.40
2012,08,18,08,23,16.40
2012,08,18,08,24,16.40
2012,08,18,08,25,16.40
2012,08,18,08,26,16.40
2012,08,18,08,27,16.50
2012,08,18,08,28,16.50
2012,08,18,08,29,16.50
2012,08,18,08,30,16.60
2012,08,18,08,31,16.60
2012,08,18,08,32,16.70
2012,08,18,08,33,16.70
2012,08,18,08,34,16.80
2012,08,18,08,35,16.80
2012,08,18,08,36,16.90
2012,08,18,08,37,16.90
2012,08,18,08,38,17.00
2012,08,18,08,39,17.00
2012,08,18,08,40,17.10
2012,08,18,08,41,17.10
2012,08,18,08,42,17.20
2012,08,18,08,43,17.20
2012,08,18,08,44,17.30
2012,08,18,08,45,17.30
2012,08,18,08,46,17.40
2012,08,18,08,47,17.40
2012,08,18,08,48,17.50
2012,08,18,08,49,17.50
2012,08,18,08,50,17.60
2012,08,18,08,51,17.70
2012,08,18,08,52,17.70
2012,08,18,08,53,17.80
2012,08,18,08,54,17.80
2012,08,18,08,55,17.90
2012,08,18,08,56,17.90
2012,08,18,08,57,18.00
2012,08,18,08,58,18.10
2012,08,18,08,59,18.10
2012,08,18,09,00,18.20
2012,08,18,09,01,18.30
2012,08,18,09,02,18.30
2012,08,18,09,03,18.40
2012,08,18,09,04,18.40
2012,08,18,09,05,18.50
2012,08,18,09,06,18.60
2012,08,18,09,07,18.60
2012,08,18,09,08,18.70
2012,08,18,09,09,18.80
2012,08,18,09,10,18.90
2012,08,18,09,11,18.90
2012,08,18,09,12,19.00
2012,08,18,09,13,19.10
2012,08,18,09,14,19.20
2012,08,18,09,15,19.30
2012,08,18,09,16,19.30
2012,08,18,09,17,19.40
2012,08,18,09,18,19.50
2012,08,18,09,19,19.60
2012,08,18,09,20,19.60
2012,08,18,09,21,19.70
2012,08,18,09,22,19.70
2012,08,18,09,23,19.70
2012,08,18,09,24,19.70
2012,08,18,09,25,19.70
2012,08,18,09,26,19.70
2012,08,18,09,27,19.70
2012,08,18,09,28,19.60
2012,08,18,09,29,19.50
2012,08,18,09,30,19.40
2012,08,18,09,31,19.30
2012,08,18,09,32,19.30
2012,08,18,09,33,19.20
2012,08,18,09,34,19.10
2012,08,18,09,35,19.10
2012,08,18,09,36,19.10
2012,08,18,09,37,19.10
2012,08,18,09,38,19.10
2012,08,18,09,39,19.10
2012,08,18,09,40,19.10
2012,08,18,09,41,19.10
2012,08,18,09,42,19.20
2012,08,18,09,43,19.20
2012,08,18,09,44,19.20
2012,08,18,09,45,19.20
2012,08,18,09,46,19.20
2012,08,18,09,47,19.20
2012,08,18,09,48,19.10
2012,08,18,09,49,19.10
2012,08,18,09,50,19.10
2012,08,18,09,51,19.10
2012,08,18,09,52,19.20
2012,08,18,09,53,19.30
2012,08,18,09,54,19.30
2012,08,18,09,55,19.40
2012,08,18,09,56,19.50
2012,08,18,09,57,19.60
2012,08,18,09,58,19.70
2012,08,18,09,59,19.70
2012,08,18,10,00,19.70
2012,08,18,10,01,19.80
2012,08,18,10,02,19.80
2012,08,18,10,03,19.80
2012,08,18,10,04,19.90
2012,08,18,10,05,19.90
2012,08,18,10,06,20.10
2012,08,18,10,07,20.10
2012,08,18,10,08,20.20
2012,08,18,10,09,20.30
2012,08,18,10,10,20.30
2012,08,18,10,11,20.40
2012,08,18,10,12,20.40
2012,08,18,10,13,20.50
2012,08,18,10,14,20.50
2012,08,18,10,15,20.50
2012,08,18,10,16,20.50
2012,08,18,10,17,20.50
2012,08,18,10,18,20.60
2012,08,18,10,19,20.60
2012,08,18,10,20,20.60
2012,08,18,10,21,20.60
2012,08,18,10,22,20.60
2012,08,18,10,23,20.70
2012,08,18,10,24,20.70
2012,08,18,10,25,20.80
2012,08,18,10,26,20.80
2012,08,18,10,27,20.80
2012,08,18,10,28,20.90
2012,08,18,10,29,21.00
2012,08,18,10,30,21.00
2012,08,18,10,31,21.00
2012,08,18,10,32,21.10
2012,08,18,10,33,21.20
2012,08,18,10,34,21.20
2012,08,18,10,35,21.20
2012,08,18,10,36,21.20
2012,08,18,10,37,21.20
2012,08,18,10,38,21.20
2012,08,18,10,39,21.20
2012,08,18,10,40,21.10
2012,08,18,10,41,21.10
2012,08,18,10,42,21.10
2012,08,18,10,43,21.20
2012,08,18,10,44,21.30
2012,08,18,10,45,21.30
2012,08,18,10,46,21.30
2012,08,18,10,47,21.40
2012,08,18,10,48,21.40
2012,08,18,10,49,21.40
2012,08,18,10,50,21.40
2012,08,18,10,51,21.40
2012,08,18,10,52,21.40
2012,08,18,10,53,21.40
2012,08,18,10,54,21.50
2012,08,18,10,55,21.60
2012,08,18,10,56,21.70
2012,08,18,10,57,21.80
2012,08,18,10,58,22.00
2012,08,18,10,59,22.10
2012,08,18,11,00,22.20
2012,08,18,11,01,22.20
2012,08,18,11,02,22.20
2012,08,18,11,03,22.10
2012,08,18,11,04,22.10
2012,08,18,11,05,22.10
2012,08,18,11,06,22.20
2012,08,18,11,07,22.30
2012,08,18,11,08,22.40
2012,08,18,11,09,22.40
2012,08,18,11,10,22.50
2012,08,18,11,11,22.60
2012,08,18,11,12,22.70
2012,08,18,11,13,22.80
2012,08,18,11,14,22.90
2012,08,18,11,15,23.10
2012,08,18,11,16,23.20
2012,08,18,11,17,23.30
2012,08,18,11,18,23.40
2012,08,18,11,19,23.60
2012,08,18,11,20,23.70
2012,08,18,11,21,23.80
2012,08,18,11,22,24.00
2012,08,18,11,23,24.10
2012,08,18,11,24,24.20
2012,08,18,11,25,24.10
2012,08,18,11,26,24.00
2012,08,18,11,27,23.90
2012,08,18,11,28,23.90
2012,08,18,11,29,23.80
2012,08,18,11,30,23.80
2012,08,18,11,31,23.80
2012,08,18,11,32,23.70
2012,08,18,11,33,23.70
2012,08,18,11,34,23.70
2012,08,18,11,35,23.80
2012,08,18,11,36,23.80
2012,08,18,11,37,23.80
2012,08,18,11,38,23.80
2012,08,18,11,39,23.80
2012,08,18,11,40,23.80
2012,08,18,11,41,23.90
2012,08,18,11,42,23.90
2012,08,18,11,43,24.00
2012,08,18,11,44,24.10
2012,08,18,11,45,24.20
2012,08,18,11,46,24.20
2012,08,18,11,47,24.20
2012,08,18,11,48,24.20
2012,08,18,11,49,24.30
2012,08,18,11,50,24.30
2012,08,18,11,51,24.30
2012,08,18,11,52,24.40
2012,08,18,11,53,24.50
2012,08,18,11,54,24.60
2012,08,18,11,55,24.60
2012,08,18,11,56,24.50
2012,08,18,11,57,24.40
2012,08,18,11,58,24.30
2012,08,18,11,59,24.20
2012,08,18,12,00,23.90
2012,08,18,12,01,23.50
2012,08,18,12,02,23.10
2012,08,18,12,03,22.70
2012,08,18,12,04,22.30
2012,08,18,12,05,22.00
2012,08,18,12,06,21.80
2012,08,18,12,07,21.60
2012,08,18,12,08,21.40
2012,08,18,12,09,21.20
2012,08,18,12,10,20.90
2012,08,18,12,11,20.70
2012,08,18,12,12,20.50
2012,08,18,12,13,20.20
2012,08,18,12,14,19.90
2012,08,18,12,15,19.70
2012,08,18,12,16,19.60
2012,08,18,12,17,19.50
2012,08,18,12,18,19.30
2012,08,18,12,19,19.20
2012,08,18,12,20,19.00
2012,08,18,12,21,18.90
2012,08,18,12,22,18.80
2012,08,18,12,23,18.80
2012,08,18,12,24,18.80
2012,08,18,12,25,18.70
2012,08,18,12,26,18.70
2012,08,18,12,27,18.60
2012,08,18,12,28,18.60
2012,08,18,12,29,18.60
2012,08,18,12,30,18.60
2012,08,18,12,31,18.70
2012,08,18,12,32,18.70
2012,08,18,12,33,18.80
2012,08,18,12,34,18.80
2012,08,18,12,35,18.80
2012,08,18,12,36,18.90
2012,08,18,12,37,19.00
2012,08,18,12,38,19.00
2012,08,18,12,39,19.20
2012,08,18,12,40,19.30
2012,08,18,12,41,19.30
2012,08,18,12,42,19.40
2012,08,18,12,43,19.50
2012,08,18,12,44,19.50
2012,08,18,12,45,19.60
2012,08,18,12,46,19.70
2012,08,18,12,47,19.80
2012,08,18,12,48,19.90
2012,08,18,12,49,20.00
2012,08,18,12,50,20.00
2012,08,18,12,51,20.10
2012,08,18,12,52,20.10
2012,08,18,12,53,20.20
2012,08,18,12,54,20.20
2012,08,18,12,55,20.30
2012,08,18,12,56,20.30
2012,08,18,12,57,20.40
2012,08,18,12,58,20.50
2012,08,18,12,59,20.60
2012,08,18,13,00,20.60
2012,08,18,13,01,20.70
2012,08,18,13,02,20.80
2012,08,18,13,03,20.90
2012,08,18,13,04,21.00
2012,08,18,13,05,21.10
2012,08,18,13,06,21.10
2012,08,18,13,07,21.20
2012,08,18,13,08,21.30
2012,08,18,13,09,21.40
2012,08,18,13,10,21.40
2012,08,18,13,11,21.50
2012,08,18,13,12,21.50
2012,08,18,13,13,21.60
2012,08,18,13,14,21.60
2012,08,18,13,15,21.70
2012,08,18,13,16,21.80
2012,08,18,13,17,21.80
2012,08,18,13,18,21.90
2012,08,18,13,19,22.00
2012,08,18,13,20,22.10
2012,08,18,13,21,22.10
2012,08,18,13,22,22.10
2012,08,18,13,23,22.20
2012,08,18,13,24,22.20
2012,08,18,13,25,22.20
2012,08,18,13,26,22.20
2012,08,18,13,27,22.10
2012,08,18,13,28,22.00
2012,08,18,13,29,21.90
2012,08,18,13,30,21.70
2012,08,18,13,31,21.60
2012,08,18,13,32,21.40
2012,08,18,13,33,21.30
2012,08,18,13,34,21.20
2012,08,18,13,35,21.10
2012,08,18,13,36,20.90
2012,08,18,13,37,20.70
2012,08,18,13,38,20.50
2012,08,18,13,39,20.30
2012,08,18,13,40,20.20
2012,08,18,13,41,20.20
2012,08,18,13,42,20.10
2012,08,18,13,43,20.00
2012,08,18,13,44,19.80
2012,08,18,13,45,19.70
2012,08,18,13,46,19.50
2012,08,18,13,47,19.30
2012,08,18,13,48,19.20
2012,08,18,13,49,19.20
2012,08,18,13,50,19.20
2012,08,18,13,51,19.20
2012,08,18,13,52,19.30
2012,08,18,13,53,19.30
2012,08,18,13,54,19.30
2012,08,18,13,55,19.30
2012,08,18,13,56,19.30
2012,08,18,13,57,19.30
2012,08,18,13,58,19.30
2012,08,18,13,59,19.40
2012,08,18,14,00,19.50
2012,08,18,14,01,19.60
2012,08,18,14,02,19.60
2012,08,18,14,03,19.60
2012,08,18,14,04,19.60
2012,08,18,14,05,19.60
2012,08,18,14,06,19.60
2012,08,18,14,07,19.60
2012,08,18,14,08,19.60
2012,08,18,14,09,19.60
2012,08,18,14,10,19.70
2012,08,18,14,11,19.70
2012,08,18,14,12,19.80
2012,08,18,14,13,19.80
2012,08,18,14,14,19.90
2012,08,18,14,15,20.00
2012,08,18,14,16,20.10
2012,08,18,14,17,20.10
2012,08,18,14,18,20.10
2012,08,18,14,19,20.10
2012,08,18,14,20,20.10
2012,08,18,14,21,20.10
2012,08,18,14,22,20.00
2012,08,18,14,23,19.90
2012,08,18,14,24,19.80
2012,08,18,14,25,19.70
2012,08,18,14,26,19.50
2012,08,18,14,27,19.40
2012,08,18,14,28,19.40
2012,08,18,14,29,19.30
2012,08,18,14,30,19.20
2012,08,18,14,31,19.10
2012,08,18,14,32,19.00
2012,08,18,14,33,18.90
2012,08,18,14,34,18.80
2012,08,18,14,35,18.70
2012,08,18,14,36,18.60
2012,08,18,14,37,18.50
2012,08,18,14,38,18.40
2012,08,18,14,39,18.40
2012,08,18,14,40,18.40
2012,08,18,14,41,18.30
2012,08,18,14,42,18.20
2012,08,18,14,43,18.10
2012,08,18,14,44,18.10
2012,08,18,14,45,18.00
2012,08,18,14,46,17.80
2012,08,18,14,47,17.70
2012,08,18,14,48,17.60
2012,08,18,14,49,17.60
2012,08,18,14,50,17.50
2012,08,18,14,51,17.50
2012,08,18,14,52,17.60
2012,08,18,14,53,17.60
2012,08,18,14,54,17.70
2012,08,18,14,55,17.70
2012,08,18,14,56,17.70
2012,08,18,14,57,17.80
2012,08,18,14,58,17.80
2012,08,18,14,59,17.80
2012,08,18,15,00,17.90
2012,08,18,15,01,18.00
2012,08,18,15,02,18.10
2012,08,18,15,03,18.10
2012,08,18,15,04,18.20
2012,08,18,15,05,18.30
2012,08,18,15,06,18.30
2012,08,18,15,07,18.40
2012,08,18,15,08,18.40
2012,08,18,15,09,18.50
2012,08,18,15,10,18.60
2012,08,18,15,11,18.80
2012,08,18,15,12,18.80
2012,08,18,15,13,18.90
2012,08,18,15,14,19.00
2012,08,18,15,15,19.10
2012,08,18,15,16,19.20
2012,08,18,15,17,19.20
2012,08,18,15,18,19.30
2012,08,18,15,19,19.40
2012,08,18,15,20,19.50
2012,08,18,15,21,19.60
2012,08,18,15,22,19.70
2012,08,18,15,23,19.70
2012,08,18,15,24,19.80
2012,08,18,15,25,19.80
2012,08,18,15,26,19.90
2012,08,18,15,27,19.90
2012,08,18,15,28,19.90
2012,08,18,15,29,19.80
2012,08,18,15,30,19.80
2012,08,18,15,31,19.70
2012,08,18,15,32,19.70
2012,08,18,15,33,19.60
2012,08,18,15,34,19.60
2012,08,18,15,35,19.60
2012,08,18,15,36,19.60
2012,08,18,15,37,19.60
2012,08,18,15,38,19.70
2012,08,18,15,39,19.70
2012,08,18,15,40,19.70
2012,08,18,15,41,19.70
2012,08,18,15,42,19.60
2012,08,18,15,43,19.60
2012,08,18,15,44,19.50
2012,08,18,15,45,19.40
2012,08,18,15,46,19.30
2012,08,18,15,47,19.30
2012,08,18,15,48,19.10
2012,08,18,15,49,19.10
2012,08,18,15,50,19.00
2012,08,18,15,51,18.90
2012,08,18,15,52,18.90
2012,08,18,15,53,18.90
2012,08,18,15,54,18.90
2012,08,18,15,55,18.80
2012,08,18,15,56,18.80
2012,08,18,15,57,18.80
2012,08,18,15,58,18.70
2012,08,18,15,59,18.70
2012,08,18,16,00,18.80
2012,08,18,16,01,18.80
2012,08,18,16,02,18.80
2012,08,18,16,03,18.80
2012,08,18,16,04,18.80
2012,08,18,16,05,18.80
2012,08,18,16,06,18.90
2012,08,18,16,07,18.90
2012,08,18,16,08,19.00
2012,08,18,16,09,19.00
2012,08,18,16,10,19.10
2012,08,18,16,11,19.10
2012,08,18,16,12,19.20
2012,08,18,16,13,19.20
2012,08,18,16,14,19.20
2012,08,18,16,15,19.20
2012,08,18,16,16,19.20
2012,08,18,16,17,19.20
2012,08,18,16,18,19.20
2012,08,18,16,19,19.30
2012,08,18,16,20,19.30
2012,08,18,16,21,19.30
2012,08,18,16,22,19.30
2012,08,18,16,23,19.40
2012,08,18,16,24,19.40
2012,08,18,16,25,19.50
2012,08,18,16,26,19.50
2012,08,18,16,27,19.60
2012,08,18,16,28,19.60
2012,08,18,16,29,19.60
2012,08,18,16,30,19.60
2012,08,18,16,31,19.70
2012,08,18,16,32,19.70
2012,08,18,16,33,19.70
2012,08,18,16,34,19.70
2012,08,18,16,35,19.70
2012,08,18,16,36,19.80
2012,08,18,16,37,19.80
2012,08,18,16,38,19.80
2012,08,18,16,39,19.90
2012,08,18,16,40,19.90
2012,08,18,16,41,19.90
2012,08,18,16,42,20.00
2012,08,18,16,43,20.00
2012,08,18,16,44,20.00
2012,08,18,16,45,20.10
2012,08,18,16,46,20.10
2012,08,18,16,47,20.20
2012,08,18,16,48,20.20
2012,08,18,16,49,20.20
2012,08,18,16,50,20.10
2012,08,18,16,51,20.10
2012,08,18,16,52,20.10
2012,08,18,16,53,20.10
2012,08,18,16,54,20.10
2012,08,18,16,55,20.10
2012,08,18,16,56,20.00
2012,08,18,16,57,20.00
2012,08,18,16,58,19.90
2012,08,18,16,59,19.80
2012,08,18,17,00,19.80
2012,08,18,17,01,19.80
2012,08,18,17,02,19.80
2012,08,18,17,03,19.80
2012,08,18,17,04,19.80
2012,08,18,17,05,19.80
2012,08,18,17,06,19.80
2012,08,18,17,07,19.80
2012,08,18,17,08,19.80
2012,08,18,17,09,19.80
2012,08,18,17,10,19.80
2012,08,18,17,11,19.80
2012,08,18,17,12,19.70
2012,08,18,17,13,19.60
2012,08,18,17,14,19.60
2012,08,18,17,15,19.50
2012,08,18,17,16,19.40
2012,08,18,17,17,19.30
2012,08,18,17,18,19.30
2012,08,18,17,19,19.20
2012,08,18,17,20,19.20
2012,08,18,17,21,19.20
2012,08,18,17,22,19.20